Regional Weather Roundup
Issued by NWS Cleveland, OH

Home | Current Version | Previous Version | Graphics & Text | Print | Product List | Glossary On
Versions: 1 2 3 4 5 6 7 8 9 10 11 12 13 14 15 16 17 18 19 20 21 22 23 24 25 26 27 28 29 30 31 32 33 34 35 36 37 38 39 40 41 42 43 44 45 46 47 48 49 50
000
ASUS41 KCLE 280302
RWRCLE
OHIO REGIONAL WEATHER ROUNDUP
NATIONAL WEATHER SERVICE CLEVELAND, OH
1100 PM EDT MON MAR 27 2017

NOTE: "FAIR" INDICATES FEW OR NO CLOUDS BELOW 12,000 FEET WITH NO
SIGNIFICANT WEATHER AND/OR OBSTRUCTIONS TO VISIBILITY.

OHZ001>008-015>018-024>027-034-035-043-044-280400-
   NORTHWEST OHIO

CITY           SKY/WX    TMP DP  RH WIND       PRES   REMARKS
DEFIANCE       CLOUDY    54  49  83 NE6       29.89F
FINDLAY        CLOUDY    58  49  72 NE7       29.87F
TOLEDO EXPRESS CLOUDY    54  49  83 CALM      29.90R
TOLEDO EXEC    CLOUDY    56  51  84 E3        29.91S
LIMA           CLOUDY    56  52  86 NE7       29.87F
$$

OHZ009>014-019>023-028>033-038-089-280400-
   NORTHEAST OHIO

CITY           SKY/WX    TMP DP  RH WIND       PRES   REMARKS
CLE-HOPKINS    CLOUDY    55  46  71 E6        29.92F
CLE-LAKEFRONT  CLOUDY    53  47  79 E5        29.90S
CUY CO. ARPT   MOCLDY    52  50  93 CALM      29.92S
LORAIN-ELYRIA  CLOUDY    51  46  83 NE5       29.90F
ASHTABULA      CLOUDY    48  47  96 SE3       29.93S
AKRON-CANTON   MOCLDY    55  48  77 N8        29.89F
WOOSTER        PTCLDY    54  50  86 CALM      29.90S
MANSFIELD      CLOUDY    55  50  83 N5        29.89F
YOUNGSTOWN     CLOUDY    52  47  83 NE8       29.92S
$$

OHZ042-051>053-060>062-070>072-077>081-280400-
  SOUTHWEST OHIO

CITY           SKY/WX    TMP DP  RH WIND       PRES   REMARKS
CINC-COVINGTON CLOUDY    57  56  96 S5        29.86R
CINC-LUNKEN    LGT RAIN  58  58 100 CALM      29.86F
HAMILTON       LGT RAIN  59  58  96 CALM      29.86F
DAYTON         LGT RAIN  57  56  96 SE9       29.85F FOG
WRIGHT-PAT AFB LGT RAIN  58  58 100 E7        29.85S
DAYTON GENERAL LGT RAIN  58  56  93 SE3       29.85S
WILMINGTON     LGT RAIN  59  57  93 SW12      29.86S
$$

OHZ036-037-039>041-045>050-054>059-063>069-073>076-082>088-280400-
  CENTRAL AND SOUTHEAST OHIO

CITY           SKY/WX    TMP DP  RH WIND       PRES   REMARKS
COLUMBUS       CLOUDY    58  52  80 NE3       29.85F
OSU AIRPORT    CLOUDY    57  53  86 E6        29.85F
BOLTON FIELD   MOCLDY    59  52  78 NE3       29.86F
RICKENBACK AFB MOCLDY    57  53  87 NE6       29.85S
NEWARK         CLOUDY    55  52  89 CALM      29.86F
MARION         CLOUDY    54  51  90 NE6       29.88F
LANCASTER      CLOUDY    57  52  83 CALM      29.87S
ZANESVILLE     CLOUDY    56  50  80 CALM      29.87F
NEW PHILLY     NOT AVBL
$$



USA.gov is the U.S. government's official web portal to all federal, state and local government web resources and services.